Regional Weather Roundup
Issued by NWS

Home | Current Version | Previous Version | Text Only | Print | Product List | Glossary Off
Versions: 1 2 3 4 5 6 7 8 9 10 11 12 13 14 15 16 17 18 19 20 21 22 23 24 25 26 27 28 29 30 31 32 33 34 35 36 37 38 39 40 41 42 43 44 45 46 47 48 49 50

000
ASUS43 KFSD 190702
RWRSD

WEATHER ROUNDUP FOR SOUTH DAKOTA
NATIONAL WEATHER SERVICE SIOUX FALLS SD
200 AM CDT SUN APR 19 2015

NOTE: "FAIR" INDICATES FEW OR NO CLOUDS BELOW 12,000 FEET WITH NO
SIGNIFICANT WEATHER AND/OR OBSTRUCTIONS TO VISIBILITY.


SDZ001>005-009-010-012>017-190800-
NORTHWEST AND NORTH CENTRAL SOUTH DAKOTA

CITY           SKY/WX    TMP DP  RH WIND       PRES   REMARKS
BUFFALO          N/A     43  28  55 NW22      29.97R
FAITH            N/A     45  42  89 N13       29.96S
MOBRIDGE       LGT RAIN  49  45  86 N25G40    29.84F
$$

SDZ012>016-024>037-041>051-057-063-072>074-190800-
SOUTHWEST AND SOUTH CENTRAL SOUTH DAKOTA

CITY           SKY/WX    TMP DP  RH WIND       PRES   REMARKS
RAPID CTY ARPT MOCLDY    44  36  73 NW24G33   30.00R
PIERRE         LGT RAIN  47  45  93 NW18      29.84F
CUSTER         CLOUDY    36  27  69 N9        29.99R
ELLSWORTH AFB  CLOUDY    44  36  74 NW22G30   29.99S
PHILIP         LGT RAIN  48  45  89 N16G24    29.91S
PINE RIDGE     LGT RAIN  45  41  86 NW21G30   29.97R
WINNER         CLOUDY    48  44  86 NW20      29.84F
$$

SDZ004>011-016>023-039-040-190800-
NORTHEAST SOUTH DAKOTA

CITY           SKY/WX    TMP DP  RH WIND       PRES   REMARKS
ABERDEEN       HVY RAIN  50  47  89 N17       29.79S FOG
WATERTOWN      CLOUDY    53  51  93 E3        29.74F
BROOKINGS      CLOUDY    55  54  94 S6        29.75F VSB 1/2
SISSETON         N/A     50  50 100 E7        29.74F
$$

SDZ017-020-022-023-036>040-048>070-190800-
SOUTHEAST SOUTH DAKOTA

CITY           SKY/WX    TMP DP  RH WIND       PRES   REMARKS
SIOUX FALLS    CLOUDY    57  55  93 S10       29.74F
HURON          CLOUDY    53  53 100 W9        29.75S FOG
MITCHELL       CLOUDY    54  54 100 W8        29.76F FOG
YANKTON          N/A     54  52  94 CALM      29.76S VSB<1/4
$$

ABBREVIATIONS USED IN REMARKS
   TC - TEMPERATURE IN CELSIUS
  WCI - WIND CHILL INDEX
   HX - HEAT INDEX
  VSB - VISIBILITY




USA.gov is the U.S. government's official web portal to all federal, state and local government web resources and services.